Terminal Aerodrome Forecast
Issued by NWS Sterling, VA

Current Version | Previous Version | Text Only | Print | Product List | Glossary Off
Versions: 1 2 3 4 5 6 7 8 9 10 11 12 13 14 15 16 17 18 19 20 21 22

707
FTUS41 KLWX 161457 AAA
TAFDCA
TAF AMD
KDCA 161457Z 1615/1712 VRB03KT P6SM OVC030
     FM162300 17004KT P6SM OVC015=

USA.gov is the U.S. government's official web portal to all federal, state and local government web resources and services.